User: anonymous   Login
Location: Unspecified
(0.0000°N, 0.0000°E)
Time: 20:02:42
(UTC+00:00)
Language:

GCOM W1 - Orbit

View from above orbital plane
View from above orbital plane
View from above satellite
View from above satellite

Ground track
Ground track

The orbit is defined by the following mean orbital elements,

1 38337U          26145.38148758 +.00000000 +00000-0 +98691-4 0 00006
2 38337  98.2015  86.2841 0001779  91.7982  19.8655 14.57099119    00
Epoch (UTC): 25 May 2026 09:09:20
Eccentricity: 0.0001779
inclination: 98.2015°
perigee height: 701 km
apogee height: 704 km
right ascension of ascending node: 86.2841°
argument of perigee: 91.7982°
revolutions per day: 14.57099119
mean anomaly at epoch: 19.8655°

The dashed part of the orbit path shows where the satellite is in the earth's shadow,  

DLR